Kahului, HI

12:40 AM HST on October 01, 2016 (GMT -1000)
Kahului

Weather History for PHOG - September, 2013

Change the Weather History Date:

Tuesday, September 10, 2013

  Actual Average Record
Temperature  
Mean Temperature 81 °F 79 °F  
Max Temperature 89 °F 88 °F 93 °F (1984)
Min Temperature 73 °F 71 °F 61 °F (1985)
Degree Days  
Heating Degree Days 0 0  
Month to date heating degree days 0 0  
Since 1 July heating degree days 0 0  
Cooling Degree Days 16 14  
Month to date cooling degree days 152 142  
Year to date cooling degree days 2939 2684  
Growing Degree Days 31 (Base 50)    
Moisture  
Dew Point 71 °F    
Average Humidity 71    
Maximum Humidity 87    
Minimum Humidity 55    
Precipitation  
Precipitation 0.00 in 0.02 in 0.46 in (1966)
Month to date precipitation 0.09 0.12  
Year to date precipitation 8.75 10.82  
Snow  
Snow 0.00 in - - ()
Month to date snowfall 0.0  
Since 1 July snowfall 0.0  
Since 1 September snowfall 0.0  
Snow Depth 0.00 in    
Sea Level Pressure  
Sea Level Pressure 30.06 in    
Wind  
Wind Speed 13 mph (NE)    
Max Wind Speed 29 mph    
Max Gust Speed 35 mph    
Visibility 10 miles    
Events      
T = Trace of Precipitation, MM = Missing Value Source: NWS Daily Summary

Daily Weather History Graph

Daily Weather History Graph

Search for Another Location

Airport or City:

Trip Planner

Search our weather history database for the weather conditions in past years. The results will help you decide how hot, cold, wet, or windy it might be!

Date:

Astronomy

Sep. 10, 2013 Rise Set
Actual Time 6:11 AM HST 6:32 PM HST
Civil Twilight 5:49 AM HST 6:55 PM HST
Nautical Twilight 5:23 AM HST 7:21 PM HST
Astronomical Twilight 4:57 AM HST 7:47 PM HST
Moon 11:04 AM HST (9/10) 10:31 PM HST (9/10)
Length of Visible Light 13h 05m
Length of Day
12h 21m
Waxing Crescent, 30% of the Moon is Illuminated
Sep 10
Waxing Crescent
Sep 12
First Quarter
Sep 19
Full
Sep 26
Last Quarter
Oct 4
New

Hourly Weather History & Observations

Time (HST) Temp. Heat Index Dew Point Humidity Pressure Visibility Wind Dir Wind Speed Gust Speed Precip Events Conditions
12:54 AM 73.9 °F - 68.0 °F 82% 30.09 in 10.0 mi ENE 8.1 mph - N/A   Mostly Cloudy
1:54 AM 75.9 °F - 68.0 °F 76% 30.07 in 10.0 mi NE 8.1 mph - N/A   Clear
2:54 AM 75.9 °F - 69.1 °F 79% 30.06 in 10.0 mi NNE 8.1 mph - N/A   Partly Cloudy
3:54 AM 75.0 °F - 70.0 °F 84% 30.04 in 10.0 mi NNE 9.2 mph - N/A   Clear
4:54 AM 75.0 °F - 69.1 °F 82% 30.06 in 10.0 mi NE 5.8 mph - N/A   Clear
5:54 AM 75.9 °F - 70.0 °F 82% 30.06 in 10.0 mi NNE 6.9 mph - N/A   Mostly Cloudy
6:54 AM 75.9 °F - 71.1 °F 85% 30.06 in 10.0 mi NNE 8.1 mph - N/A   Partly Cloudy
7:54 AM 80.1 °F 83.8 °F 72.0 °F 76% 30.07 in 10.0 mi NE 12.7 mph - N/A   Mostly Cloudy
8:54 AM 80.1 °F 83.2 °F 70.0 °F 71% 30.09 in 10.0 mi ENE 9.2 mph - N/A   Overcast
9:54 AM 84.9 °F 91.4 °F 73.0 °F 67% 30.08 in 10.0 mi NE 18.4 mph 24.2 mph N/A   Scattered Clouds
10:54 AM 86.0 °F 90.7 °F 70.0 °F 59% 30.07 in 10.0 mi NE 17.3 mph - N/A   Partly Cloudy
11:54 AM 87.1 °F 93.6 °F 72.0 °F 61% 30.06 in 10.0 mi NE 20.7 mph - N/A   Partly Cloudy
12:54 PM 87.1 °F 92.0 °F 70.0 °F 57% 30.03 in 10.0 mi ENE 19.6 mph 26.5 mph N/A   Scattered Clouds
1:54 PM 86.0 °F 92.2 °F 72.0 °F 63% 30.03 in 10.0 mi NE 25.3 mph - N/A   Partly Cloudy
2:54 PM 88.0 °F 92.9 °F 70.0 °F 55% 30.00 in 10.0 mi NE 26.5 mph 32.2 mph N/A   Partly Cloudy
3:54 PM 84.9 °F 91.4 °F 73.0 °F 67% 29.99 in 10.0 mi NE 23.0 mph 31.1 mph N/A   Scattered Clouds
4:58 PM 84.2 °F 89.6 °F 71.6 °F 66% 29.98 in 10.0 mi NE 19.6 mph 26.5 mph N/A   Partly Cloudy
5:54 PM 82.0 °F 86.3 °F 71.1 °F 69% 30.01 in 10.0 mi ENE 16.1 mph 23.0 mph N/A   Partly Cloudy
7:54 PM 79.0 °F - 73.0 °F 82% 30.06 in 10.0 mi NE 12.7 mph - N/A   Partly Cloudy
8:54 PM 78.1 °F - 72.0 °F 81% 30.08 in 10.0 mi NE 9.2 mph - N/A   Partly Cloudy
9:54 PM 77.0 °F - 72.0 °F 84% 30.10 in 10.0 mi NE 8.1 mph - N/A   Clear
10:54 PM 75.9 °F - 71.1 °F 85% 30.09 in 10.0 mi NE 8.1 mph - N/A   Clear
11:54 PM 75.9 °F - 69.1 °F 79% 30.08 in 10.0 mi NE 10.4 mph - N/A   Partly Cloudy